Change the Weather History Date:

Thursday, October 27, 2011

  Actual Average Record
Temperature  
Mean Temperature 59 °F 61 °F  
Max Temperature 75 °F 78 °F 87 °F (1990)
Min Temperature 42 °F 43 °F 32 °F (1997)
Degree Days  
Heating Degree Days 6 5  
Month to date heating degree days 31 59  
Since 1 July heating degree days 31 61  
Cooling Degree Days 0 0  
Month to date cooling degree days 157 60  
Year to date cooling degree days 2235 1811  
Growing Degree Days 8 (Base 50)    
Moisture  
Dew Point 30 °F    
Average Humidity 37    
Maximum Humidity 57    
Minimum Humidity 16    
Precipitation  
Precipitation 0.00 in 0.02 in 0.93 in (1998)
Month to date precipitation 0.15 0.79  
Year to date precipitation 7.08 11.34  
Snow  
Snow 0.00 in - - ()
Month to date snowfall 0.0  
Snow Depth 0.00 in    
Sea Level Pressure  
Sea Level Pressure 29.91 in    
Wind  
Wind Speed 5 mph (NNE)    
Max Wind Speed 12 mph    
Max Gust Speed 16 mph    
Visibility 10 miles    
Events      
T = Trace of Precipitation, MM = Missing Value Source: NWS Daily Summary

Daily Weather History Graph

Daily Weather History Graph

Search for Another Location

Airport or City:

Trip Planner

Search our weather history database for the weather conditions in past years. The results will help you decide how hot, cold, wet, or windy it might be!

Date:

Astronomy

Oct. 27, 2011 Rise Set
Actual Time 6:30 AM MST 5:33 PM MST
Civil Twilight 6:05 AM MST 5:58 PM MST
Nautical Twilight 5:36 AM MST 6:27 PM MST
Astronomical Twilight 5:08 AM MST 6:55 PM MST
Moon 7:29 AM MST (10/27) 6:14 PM MST (10/27)
Length of Visible Light 11h 53m
Length of Day
11h 03m
New Moon, 1% of the Moon is Illuminated
Oct 27
New Moon
Nov 2
First Quarter
Nov 10
Full
Nov 18
Last Quarter
Nov 24
New

Hourly Weather History & Observations

Time (MST) Temp. Windchill Dew Point Humidity Pressure Visibility Wind Dir Wind Speed Gust Speed Precip Events Conditions
12:56 AM 55.0 °F - 36.0 °F 49% 29.79 in 10.0 mi NW 8.1 mph - N/A   Clear
1:56 AM 54.0 °F - 36.0 °F 51% 29.79 in 10.0 mi West 5.8 mph - N/A   Clear
2:56 AM 48.9 °F - 34.0 °F 56% 29.82 in 10.0 mi NNE 6.9 mph - N/A   Clear
3:56 AM 48.0 °F - 33.1 °F 56% 29.82 in 10.0 mi NE 4.6 mph - N/A   Clear
4:56 AM 46.9 °F - 30.9 °F 54% 29.85 in 10.0 mi North 4.6 mph - N/A   Clear
5:56 AM 44.1 °F 41.5 °F 28.9 °F 55% 29.88 in 10.0 mi East 4.6 mph - N/A   Clear
6:56 AM 42.8 °F 40.1 °F 28.4 °F 57% 30.03 in 10.0 mi WNW 4.6 mph - N/A   Clear
7:56 AM 51.8 °F - 30.2 °F 44% 30.05 in 10.0 mi North 3.5 mph - N/A   Clear
8:56 AM 59.0 °F - 33.8 °F 39% 30.06 in 10.0 mi Calm Calm - N/A   Clear
9:56 AM 64.4 °F - 32.0 °F 30% 30.07 in 10.0 mi Calm Calm - N/A   Clear
10:56 AM 68.0 °F - 30.9 °F 25% 29.92 in 10.0 mi Calm Calm - N/A   Clear
11:56 AM 71.1 °F - 26.1 °F 19% 29.89 in 10.0 mi East 9.2 mph - N/A   Clear
12:56 PM 71.1 °F - 28.9 °F 21% 29.87 in 10.0 mi East 5.8 mph - N/A   Clear
1:56 PM 73.0 °F - 28.0 °F 19% 29.85 in 10.0 mi ENE 4.6 mph - N/A   Clear
2:56 PM 73.9 °F - 27.0 °F 18% 29.86 in 10.0 mi SSW 5.8 mph - N/A   Clear
3:56 PM 73.0 °F - 27.0 °F 18% 29.86 in 10.0 mi NE 4.6 mph - N/A   Clear
4:56 PM 73.0 °F - 25.0 °F 17% 29.87 in 10.0 mi SSW 4.6 mph - N/A   Clear
5:56 PM 66.9 °F - 25.0 °F 21% 29.90 in 10.0 mi WSW 5.8 mph - N/A   Clear
6:56 PM 61.0 °F - 23.0 °F 23% 29.94 in 10.0 mi NNE 3.5 mph - N/A   Clear
7:56 PM 57.0 °F - 24.1 °F 28% 29.94 in 10.0 mi ENE 4.6 mph - N/A   Clear
8:56 PM 59.0 °F - 30.9 °F 35% 29.94 in 10.0 mi ENE 8.1 mph - N/A   Clear
9:56 PM 54.0 °F - 28.9 °F 38% 29.96 in 10.0 mi NNW 8.1 mph - N/A   Clear
10:56 PM 54.0 °F - 30.9 °F 41% 29.96 in 10.0 mi North 8.1 mph - N/A   Clear
11:56 PM 52.0 °F - 30.0 °F 43% 29.96 in 10.0 mi North 8.1 mph - N/A   Clear